This demonstration page uses our WeatherBlox Daily Observations layout. Learn more.

Left ArrowRight Arrow

Hourly Observations for July 30, 2019

Temp ( °F °C ) Dew Point ( °F °C ) Humidity (%) Winds ( mph kmh ) Pressure ( in mb ) Visibility ( mi km ) Precip ( " mm )
12:56 am 00:56 Clear 68 20 64 17.8 87 87 ESE 7 11 30.06 1018 10 16 0.00 0.00
1:56 am 01:56 Partly Cloudy 65 18.3 62 16.7 90 90 SE 3 6 30.06 1018 10 16 0.00 0.00
2:56 am 02:56 Clear 66 18.9 62 16.7 87 87 ESE 5 7 30.06 1018 10 16 0.00 0.00
3:56 am 03:56 Clear 63 17.2 61 16.1 93 93 ENE 7 11 30.07 1018 10 16 0.00 0.00
4:56 am 04:56 Clear 63 17.2 61 16.1 93 93 E 6 9 30.06 1018 10 16 0.00 0.00
5:56 am 05:56 Clear 64 17.8 61 16.1 90 90 E 5 7 30.08 1019 10 16 0.00 0.00
6:56 am 06:56 Sunny 63 17.2 61 16.1 93 93 ESE 7 11 30.07 1018 10 16 0.00 0.00
7:56 am 07:56 Sunny 65 18.3 60 15.6 84 84 SSE 10 17 30.06 1018 10 16 0.00 0.00
8:56 am 08:56 Sunny 70 21.1 62 16.7 76 76 ESE 9 15 30.09 1019 10 16 0.00 0.00
9:56 am 09:56 Sunny 74 23.3 62 16.7 67 67 SE 15 24 30.07 1018 10 16 0.00 0.00
10:56 am 10:56 Sunny 78 25.6 62 16.7 58 58 SSE 17 28 30.07 1018 10 16 0.00 0.00
11:56 am 11:56 Sunny 79 26.1 62 16.7 56 56 SE 14 22 30.07 1018 10 16 0.00 0.00
2:56 pm 14:56 Sunny 84 28.9 60 15.6 44 44 SE 20 31 29.99 1016 10 16 0.00 0.00
3:56 pm 15:56 Sunny 85 29.4 62 16.7 46 46 SSE 17 28 29.98 1015 10 16 0.00 0.00
4:56 pm 16:56 Sunny 85 29.4 63 17.2 48 48 SE 16 26 29.97 1015 10 16 0.00 0.00
5:56 pm 17:56 Sunny 84 28.9 65 18.3 53 53 ESE 18 30 29.95 1014 10 16 0.00 0.00
6:56 pm 18:56 Sunny 82 27.8 65 18.3 56 56 ESE 17 28 29.95 1014 10 16 0.00 0.00
7:56 pm 19:56 Sunny 79 26.1 66 18.9 65 65 ESE 16 26 29.95 1014 10 16 0.00 0.00
8:56 pm 20:56 Clear 76 24.4 64 17.8 67 67 ESE 15 24 29.96 1014 10 16 0.00 0.00
9:56 pm 21:56 Clear 74 23.3 64 17.8 71 71 ESE 13 20 29.97 1015 10 16 0.00 0.00
10:56 pm 22:56 Clear 72 22.2 64 17.8 76 76 ESE 12 19 29.98 1015 10 16 0.00 0.00
11:56 pm 23:56 Clear 71 21.7 63 17.2 76 76 ESE 16 26 29.97 1015 10 16 0.00 0.00

Powered by AerisWeather